Location: Góry Miechowskie
(50.3599°N, 20.1803°E)
Time: 22:31:02
(UTC+00:00)

S-56A Canister/Altair - Pass Details

Date: 18 September 2024
Orbit: 636 x 2487 km, 38.9° (Epoch: 09 October)

Event Time Altitude Azimuth Distance (km) Brightness Sun altitude
Rises 15:49:49 0° 209° (SSW) 3,026 11.2 8.1°
Reaches altitude 10° 15:52:51 10° 186° (S) 2,257 10.2 7.6°
Maximum altitude 15:55:56 16° 149° (SSE) 2,064 9.5 7.1°
Drops below altitude 10° 15:59:34 10° 113° (ESE) 2,729 9.8 6.5°
Sets 16:03:48 0° 94° (E) 4,046 10.5 5.8°
